| time (UTC) | temp F | wind direction | speed MPH | gust MPH | rain 1hr in | rain 24hr in | rain mn in | humidity % | barometer mb |
| 20260510065626 | 53 | 189 | 0.0 | 1.0 | 0.00 | 0.00 | 0.00 | 84 | 1010.1 |
| 20260510065122 | 53 | 191 | 0.0 | 0.0 | 0.00 | 0.00 | 0.00 | 81 | 1010.2 |
| 20260510064618 | 53 | 128 | 1.0 | 1.0 | 0.00 | 0.00 | 0.00 | 84 | 1010.2 |
| 20260510064115 | 54 | 219 | 0.0 | 1.0 | 0.00 | 0.00 | 0.00 | 82 | 1010.3 |
| 20260510063612 | 54 | 220 | 1.0 | 1.0 | 0.00 | 0.00 | 0.00 | 80 | 1010.2 |
| 20260510063109 | 54 | 153 | 0.0 | 0.0 | 0.00 | 0.00 | 0.00 | 80 | 1010.3 |
| 20260510062605 | 54 | 165 | 0.0 | 1.0 | 0.00 | 0.00 | 0.00 | 82 | 1010.7 |
| 20260510062101 | 53 | 149 | 0.0 | 1.0 | 0.00 | 0.00 | 0.00 | 83 | 1010.9 |
| 20260510061557 | 52 | 147 | 1.0 | 1.0 | 0.00 | 0.00 | 0.00 | 84 | 1010.5 |
| 20260510061054 | 50 | 124 | 0.0 | 0.0 | 0.00 | 0.00 | 0.00 | 90 | 1010.4 |
| 20260510060550 | 49 | 141 | 0.0 | 0.0 | 0.00 | 0.00 | 0.00 | 93 | 1010.4 |
| 20260510060046 | 48 | 142 | 0.0 | 0.0 | 0.00 | 0.00 | 0.00 | 95 | 1010.3 |
| 20260510055542 | 48 | 126 | 1.0 | 1.0 | 0.00 | 0.00 | 0.00 | 96 | 1010.3 |
| 20260510055041 | 48 | 165 | 1.0 | 1.0 | 0.00 | 0.00 | 0.00 | 97 | 1010.4 |
| 20260510054537 | 46 | 195 | 1.0 | 1.0 | 0.00 | 0.00 | 0.00 | 98 | 1010.1 |
| 20260510054032 | 46 | 150 | 0.0 | 0.0 | 0.00 | 0.00 | 0.00 | 97 | 1010.2 |
| 20260510053526 | 46 | 151 | 0.0 | 0.0 | 0.00 | 0.00 | 0.00 | 97 | 1010.1 |
| 20260510053024 | 46 | 151 | 1.0 | 1.0 | 0.00 | 0.00 | 0.00 | 97 | 1010.0 |
| 20260510052520 | 46 | 157 | 2.0 | 2.0 | 0.00 | 0.00 | 0.00 | 97 | 1009.9 |
| 20260510052016 | 46 | 156 | 0.0 | 0.0 | 0.00 | 0.00 | 0.00 | 97 | 1009.9 |
| 20260510051512 | 46 | 156 | 0.0 | 0.0 | 0.00 | 0.00 | 0.00 | 97 | 1010.0 |
| 20260510051008 | 46 | 153 | 0.0 | 0.0 | 0.00 | 0.00 | 0.00 | 97 | 1010.1 |
| 20260510050506 | 46 | 133 | 2.0 | 2.0 | 0.00 | 0.00 | 0.00 | 97 | 1009.9 |
| 20260510050002 | 46 | 155 | 0.0 | 0.0 | 0.00 | 0.00 | 0.00 | 97 | 1009.8 |
| 20260510045500 | 46 | 155 | 0.0 | 0.0 | 0.00 | 0.00 | 0.00 | 97 | 1010.0 |
| 20260510044956 | 46 | 155 | 0.0 | 0.0 | 0.00 | 0.00 | 0.00 | 96 | 1009.8 |
| 20260510044453 | 46 | 155 | 1.0 | 1.0 | 0.00 | 0.00 | 0.00 | 97 | 1009.8 |
| 20260510043950 | 47 | 155 | 0.0 | 0.0 | 0.00 | 0.00 | 0.00 | 97 | 1009.9 |
| 20260510043445 | 47 | 155 | 0.0 | 0.0 | 0.00 | 0.00 | 0.00 | 97 | 1009.8 |
| 20260510042944 | 47 | 155 | 0.0 | 0.0 | 0.00 | 0.00 | 0.00 | 97 | 1009.9 |
| 20260510042440 | 47 | 155 | 0.0 | 0.0 | 0.00 | 0.00 | 0.00 | 97 | 1009.7 |
| 20260510041935 | 47 | 155 | 1.0 | 1.0 | 0.00 | 0.00 | 0.00 | 97 | 1009.8 |
| 20260510041433 | 47 | 151 | 1.0 | 1.0 | 0.00 | 0.00 | 0.00 | 97 | 1009.8 |
| 20260510040931 | 47 | 152 | 0.0 | 0.0 | 0.00 | 0.00 | 0.00 | 97 | 1010.1 |
| 20260510040427 | 47 | 152 | 0.0 | 0.0 | 0.00 | 0.00 | 0.00 | 97 | 1009.7 |
| 20260510035922 | 47 | 152 | 0.0 | 0.0 | 0.00 | 0.51 | 0.51 | 96 | 1009.8 |
| 20260510035419 | 47 | 152 | 0.0 | 0.0 | 0.00 | 0.51 | 0.51 | 96 | 1009.8 |
| 20260510034919 | 47 | 152 | 0.0 | 0.0 | 0.00 | 0.51 | 0.51 | 96 | 1009.5 |
| 20260510034418 | 47 | 152 | 0.0 | 0.0 | 0.00 | 0.51 | 0.51 | 96 | 1009.8 |
| 20260510033913 | 47 | 152 | 0.0 | 0.0 | 0.00 | 0.51 | 0.51 | 96 | 1009.7 |
| 20260510033410 | 47 | 152 | 0.0 | 0.0 | 0.00 | 0.51 | 0.51 | 95 | 1009.8 |
| 20260510032907 | 47 | 152 | 0.0 | 0.0 | 0.00 | 0.51 | 0.51 | 95 | 1009.7 |
| 20260510032404 | 47 | 152 | 0.0 | 0.0 | 0.00 | 0.51 | 0.51 | 95 | 1009.8 |
| 20260510031859 | 48 | 152 | 0.0 | 0.0 | 0.00 | 0.51 | 0.51 | 95 | 1009.7 |
| 20260510031355 | 48 | 152 | 0.0 | 0.0 | 0.00 | 0.51 | 0.51 | 95 | 1009.6 |
| 20260510030855 | 48 | 152 | 0.0 | 0.0 | 0.00 | 0.51 | 0.51 | 95 | 1009.7 |
| 20260510030351 | 48 | 152 | 1.0 | 1.0 | 0.00 | 0.51 | 0.51 | 95 | 1009.8 |
| 20260510025849 | 48 | 151 | 0.0 | 0.0 | 0.00 | 0.51 | 0.51 | 94 | 1009.6 |
| 20260510025346 | 49 | 151 | 1.0 | 1.0 | 0.00 | 0.51 | 0.51 | 94 | 1009.5 |
| 20260510024843 | 49 | 134 | 0.0 | 0.0 | 0.00 | 0.51 | 0.51 | 94 | 1009.6 |
| 20260510024340 | 49 | 134 | 0.0 | 0.0 | 0.00 | 0.51 | 0.51 | 93 | 1009.4 |
| 20260510023836 | 49 | 134 | 0.0 | 0.0 | 0.00 | 0.51 | 0.51 | 93 | 1009.6 |
| 20260510023332 | 50 | 134 | 0.0 | 0.0 | 0.00 | 0.51 | 0.51 | 92 | 1009.5 |
| 20260510022830 | 50 | 134 | 0.0 | 0.0 | 0.00 | 0.51 | 0.51 | 92 | 1009.5 |
| 20260510022329 | 50 | 134 | 0.0 | 0.0 | 0.00 | 0.51 | 0.51 | 92 | 1009.6 |
| 20260510021828 | 50 | 134 | 0.0 | 0.0 | 0.00 | 0.51 | 0.51 | 91 | 1009.5 |
| 20260510021326 | 51 | 134 | 0.0 | 0.0 | 0.00 | 0.51 | 0.51 | 91 | 1009.5 |
| 20260510020822 | 51 | 134 | 0.0 | 0.0 | 0.00 | 0.51 | 0.51 | 90 | 1009.4 |
| 20260510020317 | 51 | 134 | 0.0 | 0.0 | 0.00 | 0.51 | 0.51 | 90 | 1009.4 |
| 20260510015813 | 51 | 134 | 0.0 | 0.0 | 0.00 | 0.51 | 0.51 | 89 | 1009.2 |
| 20260510015309 | 52 | 134 | 0.0 | 0.0 | 0.00 | 0.51 | 0.51 | 88 | 1009.2 |
| 20260510014805 | 52 | 134 | 2.0 | 2.0 | 0.00 | 0.51 | 0.51 | 88 | 1009.2 |
| 20260510014302 | 52 | 134 | 0.0 | 0.0 | 0.00 | 0.51 | 0.51 | 87 | 1009.3 |
| 20260510013758 | 52 | 133 | 1.0 | 1.0 | 0.00 | 0.51 | 0.51 | 90 | 1009.2 |
| 20260510013254 | 52 | 133 | 0.0 | 1.0 | 0.00 | 0.51 | 0.51 | 89 | 1009.2 |
| 20260510012749 | 52 | 134 | 1.0 | 2.0 | 0.00 | 0.51 | 0.51 | 90 | 1009.6 |
| 20260510012244 | 52 | 133 | 1.0 | 1.0 | 0.00 | 0.51 | 0.51 | 89 | 1009.4 |
| 20260510011743 | 52 | 132 | 0.0 | 0.0 | 0.00 | 0.51 | 0.51 | 90 | 1009.6 |
| 20260510011239 | 52 | 139 | 0.0 | 0.0 | 0.00 | 0.51 | 0.51 | 89 | 1009.6 |
| 20260510010736 | 52 | 139 | 0.0 | 0.0 | 0.00 | 0.51 | 0.51 | 89 | 1009.5 |
| 20260510010232 | 52 | 139 | 0.0 | 0.0 | 0.00 | 0.51 | 0.51 | 89 | 1009.3 |
| 20260510005730 | 52 | 139 | 0.0 | 0.0 | 0.00 | 0.51 | 0.51 | 89 | 1009.2 |
| 20260510005226 | 52 | 152 | 0.0 | 0.0 | 0.00 | 0.51 | 0.51 | 89 | 1009.3 |
| 20260510004724 | 53 | 152 | 0.0 | 0.0 | 0.00 | 0.51 | 0.51 | 87 | 1009.0 |
| 20260510004222 | 53 | 152 | 0.0 | 0.0 | 0.00 | 0.51 | 0.51 | 87 | 1008.8 |
| 20260510003719 | 53 | 152 | 0.0 | 0.0 | 0.00 | 0.51 | 0.51 | 87 | 1008.8 |
| 20260510003215 | 53 | 153 | 0.0 | 0.0 | 0.00 | 0.51 | 0.51 | 86 | 1009.0 |
| 20260510002714 | 53 | 153 | 0.0 | 0.0 | 0.00 | 0.51 | 0.51 | 85 | 1009.2 |
| 20260510002211 | 54 | 153 | 0.0 | 0.0 | 0.00 | 0.51 | 0.51 | 84 | 1009.0 |
| 20260510001708 | 54 | 153 | 1.0 | 1.0 | 0.00 | 0.51 | 0.51 | 81 | 1008.9 |
| 20260510001207 | 54 | 162 | 0.0 | 0.0 | 0.00 | 0.51 | 0.51 | 82 | 1008.8 |
| 20260510000708 | 54 | 163 | 0.0 | 0.0 | 0.00 | 0.51 | 0.51 | 76 | 1008.6 |
| 20260510000205 | 54 | 100 | 2.0 | 3.0 | 0.00 | 0.51 | 0.51 | 77 | 1008.7 |
| 20260509235702 | 54 | 142 | 0.0 | 0.0 | 0.00 | 0.51 | 0.51 | 81 | 1008.5 |
| 20260509235158 | 54 | 170 | 0.0 | 0.0 | 0.00 | 0.51 | 0.51 | 78 | 1008.5 |
| 20260509234654 | 54 | 219 | 0.0 | 0.0 | 0.00 | 0.51 | 0.51 | 81 | 1008.5 |
| 20260509234152 | 54 | 123 | 1.0 | 1.0 | 0.00 | 0.51 | 0.51 | 85 | 1008.5 |
| 20260509233650 | 55 | 139 | 0.0 | 0.0 | 0.00 | 0.51 | 0.51 | 84 | 1008.4 |
| 20260509233147 | 55 | 139 | 0.0 | 0.0 | 0.00 | 0.51 | 0.51 | 81 | 1008.4 |
| 20260509232643 | 56 | 139 | 0.0 | 1.0 | 0.00 | 0.51 | 0.51 | 79 | 1008.3 |
| 20260509232140 | 56 | 139 | 0.0 | 0.0 | 0.00 | 0.51 | 0.51 | 76 | 1008.1 |
| 20260509231636 | 57 | 139 | 0.0 | 0.0 | 0.00 | 0.51 | 0.51 | 72 | 1008.0 |
| 20260509231134 | 57 | 139 | 0.0 | 0.0 | 0.00 | 0.51 | 0.51 | 71 | 1007.9 |
| 20260509230631 | 57 | 139 | 1.0 | 1.0 | 0.00 | 0.51 | 0.51 | 71 | 1008.1 |
| 20260509230128 | 59 | 170 | 1.0 | 1.0 | 0.00 | 0.51 | 0.51 | 72 | 1008.2 |
| 20260509225624 | 59 | 201 | 0.0 | 1.0 | 0.00 | 0.51 | 0.51 | 71 | 1008.1 |
| 20260509225119 | 59 | 201 | 0.0 | 1.0 | 0.00 | 0.51 | 0.51 | 72 | 1008.0 |
| 20260509224614 | 58 | 202 | 1.0 | 1.0 | 0.00 | 0.51 | 0.51 | 70 | 1008.1 |
| 20260509224112 | 58 | 164 | 2.0 | 2.0 | 0.00 | 0.51 | 0.51 | 72 | 1008.1 |
| 20260509223609 | 57 | 140 | 1.0 | 1.0 | 0.00 | 0.51 | 0.51 | 72 | 1008.0 |
| 20260509223107 | 57 | 149 | 0.0 | 0.0 | 0.00 | 0.51 | 0.51 | 73 | 1008.0 |
| 20260509222602 | 57 | 179 | 0.0 | 0.0 | 0.00 | 0.51 | 0.51 | 73 | 1008.0 |
| 20260509222058 | 57 | 149 | 2.0 | 3.0 | 0.00 | 0.51 | 0.51 | 73 | 1008.2 |
| 20260509221554 | 57 | 123 | 3.0 | 3.0 | 0.00 | 0.51 | 0.51 | 73 | 1008.1 |
| 20260509221050 | 57 | 68 | 1.0 | 2.0 | 0.00 | 0.51 | 0.51 | 72 | 1008.0 |
| 20260509220546 | 57 | 167 | 0.0 | 1.0 | 0.00 | 0.51 | 0.51 | 74 | 1008.2 |
| 20260509220043 | 56 | 146 | 0.0 | 1.0 | 0.00 | 0.51 | 0.51 | 76 | 1008.2 |
| 20260509215538 | 56 | 55 | 3.0 | 4.0 | 0.00 | 0.51 | 0.51 | 76 | 1008.1 |
| 20260509215036 | 56 | 106 | 6.0 | 8.0 | 0.00 | 0.51 | 0.51 | 75 | 1008.5 |
| 20260509214533 | 56 | 211 | 5.0 | 6.0 | 0.00 | 0.51 | 0.51 | 73 | 1008.5 |
| 20260509214029 | 56 | 155 | 1.0 | 1.0 | 0.00 | 0.51 | 0.51 | 76 | 1008.5 |
| 20260509213525 | 56 | 91 | 0.0 | 1.0 | 0.00 | 0.51 | 0.51 | 80 | 1008.4 |
| 20260509213023 | 56 | 143 | 2.0 | 2.0 | 0.00 | 0.51 | 0.51 | 76 | 1008.5 |
| 20260509212520 | 56 | 108 | 3.0 | 3.0 | 0.00 | 0.51 | 0.51 | 78 | 1008.6 |
| 20260509212017 | 56 | 192 | 0.0 | 0.0 | 0.00 | 0.51 | 0.51 | 77 | 1008.3 |
| 20260509211512 | 55 | 88 | 2.0 | 2.0 | 0.00 | 0.51 | 0.51 | 79 | 1008.2 |
| 20260509211009 | 55 | 131 | 1.0 | 2.0 | 0.00 | 0.51 | 0.51 | 79 | 1008.4 |
| 20260509210506 | 54 | 142 | 0.0 | 1.0 | 0.00 | 0.51 | 0.51 | 82 | 1008.5 |
| 20260509210002 | 54 | 142 | 0.0 | 0.0 | 0.00 | 0.51 | 0.51 | 85 | 1008.5 |
| 20260509205456 | 54 | 125 | 0.0 | 0.0 | 0.00 | 0.51 | 0.51 | 87 | 1008.5 |
| 20260509204952 | 53 | 154 | 0.0 | 0.0 | 0.00 | 0.51 | 0.51 | 87 | 1008.6 |
| 20260509204448 | 53 | 154 | 0.0 | 0.0 | 0.00 | 0.51 | 0.51 | 89 | 1008.6 |
| 20260509203945 | 53 | 154 | 0.0 | 0.0 | 0.00 | 0.51 | 0.51 | 88 | 1008.7 |
| 20260509203441 | 53 | 155 | 0.0 | 1.0 | 0.00 | 0.51 | 0.51 | 88 | 1009.0 |
| 20260509202939 | 53 | 197 | 0.0 | 0.0 | 0.00 | 0.51 | 0.51 | 89 | 1008.9 |
| 20260509202435 | 53 | 221 | 1.0 | 1.0 | 0.00 | 0.51 | 0.51 | 87 | 1008.9 |
| 20260509201930 | 53 | 221 | 0.0 | 0.0 | 0.00 | 0.51 | 0.51 | 88 | 1009.0 |
| 20260509201425 | 53 | 222 | 1.0 | 1.0 | 0.00 | 0.51 | 0.51 | 86 | 1008.9 |
| 20260509200923 | 53 | 155 | 0.0 | 0.0 | 0.00 | 0.51 | 0.51 | 89 | 1008.9 |
| 20260509200422 | 53 | 163 | 0.0 | 0.0 | 0.00 | 0.51 | 0.51 | 86 | 1009.2 |
| 20260509195919 | 53 | 138 | 0.0 | 1.0 | 0.00 | 0.51 | 0.51 | 86 | 1008.8 |
| 20260509195415 | 53 | 169 | 1.0 | 1.0 | 0.00 | 0.51 | 0.51 | 88 | 1009.2 |
| 20260509194914 | 53 | 141 | 1.0 | 2.0 | 0.00 | 0.51 | 0.51 | 89 | 1009.0 |
| 20260509194411 | 53 | 151 | 1.0 | 1.0 | 0.00 | 0.51 | 0.51 | 91 | 1009.3 |
| 20260509193908 | 52 | 148 | 0.0 | 0.0 | 0.00 | 0.51 | 0.51 | 89 | 1009.0 |
| 20260509193407 | 52 | 159 | 1.0 | 2.0 | 0.00 | 0.51 | 0.51 | 89 | 1009.4 |
| 20260509192903 | 53 | 147 | 1.0 | 1.0 | 0.00 | 0.51 | 0.51 | 90 | 1009.5 |
| 20260509192400 | 53 | 118 | 2.0 | 2.0 | 0.00 | 0.51 | 0.51 | 89 | 1009.4 |
| 20260509191855 | 53 | 106 | 1.0 | 1.0 | 0.07 | 0.51 | 0.51 | 90 | 1009.4 |
| 20260509191351 | 53 | 131 | 3.0 | 4.0 | 0.07 | 0.51 | 0.51 | 90 | 1009.6 |
| 20260509190847 | 53 | 158 | 1.0 | 1.0 | 0.00 | 0.50 | 0.50 | 91 | 1009.5 |
| 20260509190344 | 52 | 129 | 1.0 | 1.0 | 0.00 | 0.50 | 0.50 | 92 | 1009.5 |
| 20260509185842 | 52 | 158 | 0.0 | 0.0 | 0.00 | 0.50 | 0.50 | 90 | 1009.5 |
| 20260509185338 | 52 | 180 | 1.0 | 2.0 | 0.05 | 0.50 | 0.50 | 90 | 1009.7 |
| 20260509184836 | 52 | 139 | 1.0 | 1.0 | 0.05 | 0.50 | 0.50 | 91 | 1009.6 |
| 20260509184332 | 52 | 146 | 1.0 | 1.0 | 0.00 | 0.49 | 0.49 | 92 | 1009.7 |
| 20260509183829 | 52 | 142 | 0.0 | 1.0 | 0.07 | 0.49 | 0.49 | 92 | 1009.8 |
| 20260509183324 | 52 | 153 | 1.0 | 2.0 | 0.07 | 0.49 | 0.49 | 92 | 1009.8 |
| 20260509182820 | 52 | 161 | 1.0 | 2.0 | 0.00 | 0.48 | 0.48 | 91 | 1009.7 |
| 20260509182318 | 52 | 169 | 0.0 | 1.0 | 0.00 | 0.48 | 0.48 | 92 | 1009.6 |
| 20260509181815 | 52 | 153 | 0.0 | 0.0 | 0.00 | 0.48 | 0.48 | 92 | 1009.6 |
| 20260509181312 | 52 | 119 | 1.0 | 1.0 | 0.00 | 0.48 | 0.48 | 92 | 1009.6 |
| 20260509180810 | 52 | 164 | 0.0 | 1.0 | 0.05 | 0.48 | 0.48 | 92 | 1009.5 |
| 20260509180306 | 52 | 167 | 0.0 | 1.0 | 0.05 | 0.48 | 0.48 | 91 | 1009.7 |
| 20260509175802 | 52 | 163 | 1.0 | 1.0 | 0.00 | 0.47 | 0.47 | 92 | 1009.7 |
| 20260509175259 | 52 | 127 | 0.0 | 0.0 | 0.07 | 0.47 | 0.47 | 93 | 1009.7 |
| 20260509174754 | 52 | 124 | 1.0 | 1.0 | 0.07 | 0.47 | 0.47 | 92 | 1009.4 |
| 20260509174250 | 52 | 150 | 0.0 | 1.0 | 0.00 | 0.46 | 0.46 | 93 | 1009.7 |
| 20260509173746 | 52 | 130 | 0.0 | 1.0 | 0.05 | 0.46 | 0.46 | 92 | 1009.6 |
| 20260509173242 | 52 | 143 | 1.0 | 1.0 | 0.12 | 0.46 | 0.46 | 91 | 1009.5 |
| 20260509172738 | 52 | 109 | 1.0 | 1.0 | 0.07 | 0.45 | 0.45 | 91 | 1009.6 |
| 20260509172235 | 52 | 112 | 0.0 | 0.0 | 0.07 | 0.45 | 0.45 | 92 | 1009.8 |
| 20260509171730 | 52 | 150 | 0.0 | 1.0 | 0.07 | 0.44 | 0.44 | 91 | 1009.6 |
| 20260509171227 | 52 | 132 | 0.0 | 1.0 | 0.00 | 0.43 | 0.43 | 92 | 1009.9 |
| 20260509170724 | 52 | 158 | 0.0 | 1.0 | 0.05 | 0.43 | 0.43 | 91 | 1009.8 |
| 20260509170220 | 52 | 158 | 1.0 | 1.0 | 0.05 | 0.43 | 0.43 | 91 | 1009.9 |
| 20260509165718 | 52 | 177 | 1.0 | 1.0 | 0.00 | 0.42 | 0.42 | 91 | 1010.0 |
| 20260509165213 | 52 | 174 | 2.0 | 2.0 | 0.00 | 0.42 | 0.42 | 91 | 1010.2 |
| 20260509164710 | 52 | 156 | 0.0 | 1.0 | 0.07 | 0.42 | 0.42 | 91 | 1010.1 |
| 20260509164206 | 51 | 156 | 0.0 | 1.0 | 0.07 | 0.42 | 0.42 | 92 | 1010.0 |
| 20260509163703 | 51 | 78 | 2.0 | 3.0 | 0.00 | 0.41 | 0.41 | 93 | 1010.1 |
| 20260509163159 | 51 | 147 | 0.0 | 0.0 | 0.05 | 0.41 | 0.41 | 93 | 1010.2 |
| 20260509162657 | 51 | 142 | 1.0 | 1.0 | 0.05 | 0.41 | 0.41 | 92 | 1010.2 |
| 20260509162152 | 51 | 155 | 0.0 | 0.0 | 0.00 | 0.40 | 0.40 | 93 | 1010.3 |
| 20260509161648 | 50 | 134 | 1.0 | 1.0 | 0.07 | 0.40 | 0.40 | 93 | 1010.4 |
| 20260509161144 | 50 | 140 | 1.0 | 1.0 | 0.07 | 0.40 | 0.40 | 92 | 1010.4 |
| 20260509160640 | 50 | 169 | 1.0 | 1.0 | 0.05 | 0.39 | 0.39 | 92 | 1010.6 |
| 20260509160135 | 50 | 129 | 1.0 | 1.0 | 0.12 | 0.39 | 0.39 | 92 | 1010.4 |
| 20260509155632 | 50 | 170 | 0.0 | 0.0 | 0.12 | 0.38 | 0.38 | 92 | 1010.6 |
| 20260509155128 | 50 | 140 | 2.0 | 2.0 | 0.05 | 0.37 | 0.37 | 91 | 1010.8 |
| 20260509154624 | 50 | 133 | 0.0 | 1.0 | 0.07 | 0.36 | 0.36 | 92 | 1010.8 |
| 20260509154121 | 50 | 146 | 1.0 | 1.0 | 0.07 | 0.36 | 0.36 | 92 | 1010.9 |
| 20260509153618 | 50 | 137 | 1.0 | 1.0 | 0.05 | 0.35 | 0.35 | 90 | 1010.9 |
| 20260509153115 | 50 | 158 | 0.0 | 0.0 | 0.05 | 0.35 | 0.35 | 92 | 1010.8 |
| 20260509152611 | 50 | 156 | 1.0 | 1.0 | 0.07 | 0.34 | 0.34 | 93 | 1010.9 |
| 20260509152108 | 50 | 157 | 0.0 | 0.0 | 0.07 | 0.34 | 0.34 | 92 | 1011.0 |
| 20260509151604 | 50 | 169 | 2.0 | 2.0 | 0.07 | 0.33 | 0.33 | 92 | 1011.1 |
| 20260509151103 | 50 | 122 | 1.0 | 1.0 | 0.07 | 0.33 | 0.33 | 94 | 1011.1 |
| 20260509150600 | 49 | 127 | 1.0 | 1.0 | 0.05 | 0.32 | 0.32 | 92 | 1011.2 |
| 20260509150058 | 50 | 146 | 1.0 | 1.0 | 0.05 | 0.32 | 0.32 | 93 | 1011.3 |
| 20260509145553 | 49 | 158 | 1.0 | 2.0 | 0.05 | 0.32 | 0.32 | 94 | 1011.1 |
| 20260509145049 | 49 | 120 | 1.0 | 2.0 | 0.07 | 0.31 | 0.31 | 94 | 1011.3 |
| 20260509144546 | 48 | 160 | 0.0 | 0.0 | 0.12 | 0.31 | 0.31 | 96 | 1011.1 |
| 20260509144043 | 48 | 134 | 1.0 | 1.0 | 0.05 | 0.30 | 0.30 | 96 | 1011.3 |
| 20260509143540 | 47 | 135 | 0.0 | 1.0 | 0.07 | 0.29 | 0.29 | 96 | 1011.3 |
| 20260509143038 | 47 | 135 | 0.0 | 0.0 | 0.12 | 0.29 | 0.29 | 95 | 1011.5 |
| 20260509142538 | 47 | 134 | 0.0 | 1.0 | 0.05 | 0.28 | 0.28 | 95 | 1011.3 |
| 20260509142035 | 47 | 134 | 0.0 | 0.0 | 0.07 | 0.27 | 0.27 | 96 | 1011.3 |
| 20260509141531 | 46 | 134 | 0.0 | 0.0 | 0.07 | 0.27 | 0.27 | 95 | 1011.3 |
| 20260509141028 | 46 | 134 | 0.0 | 0.0 | 0.05 | 0.26 | 0.26 | 96 | 1011.4 |
| 20260509140525 | 46 | 134 | 0.0 | 0.0 | 0.12 | 0.26 | 0.26 | 96 | 1011.3 |
| 20260509140023 | 46 | 134 | 0.0 | 0.0 | 0.07 | 0.25 | 0.25 | 96 | 1011.5 |
| 20260509135520 | 45 | 134 | 0.0 | 0.0 | 0.05 | 0.24 | 0.24 | 96 | 1011.3 |
| 20260509135017 | 45 | 134 | 0.0 | 0.0 | 0.05 | 0.24 | 0.24 | 96 | 1011.6 |
| 20260509134514 | 45 | 134 | 0.0 | 0.0 | 0.00 | 0.23 | 0.23 | 96 | 1011.1 |
| 20260509134012 | 45 | 134 | 0.0 | 0.0 | 0.07 | 0.23 | 0.23 | 96 | 1011.3 |
| 20260509133508 | 45 | 134 | 0.0 | 0.0 | 0.07 | 0.23 | 0.23 | 96 | 1011.1 |
| 20260509133007 | 44 | 134 | 0.0 | 0.0 | 0.07 | 0.23 | 0.23 | 96 | 1011.2 |
| 20260509132505 | 44 | 134 | 0.0 | 0.0 | 0.00 | 0.22 | 0.22 | 96 | 1011.5 |
| 20260509132002 | 44 | 134 | 1.0 | 1.0 | 0.00 | 0.22 | 0.22 | 96 | 1011.2 |
| 20260509131458 | 44 | 134 | 0.0 | 0.0 | 0.05 | 0.22 | 0.22 | 96 | 1011.2 |
| 20260509130955 | 44 | 134 | 0.0 | 0.0 | 0.05 | 0.22 | 0.22 | 96 | 1011.2 |
| 20260509130450 | 44 | 150 | 1.0 | 1.0 | 0.00 | 0.21 | 0.21 | 95 | 1011.1 |
| 20260509125948 | 44 | 150 | 1.0 | 1.0 | 0.00 | 0.21 | 0.21 | 96 | 1011.4 |
| 20260509125444 | 44 | 151 | 0.0 | 1.0 | 0.07 | 0.21 | 0.21 | 96 | 1011.3 |
| 20260509124940 | 44 | 151 | 0.0 | 0.0 | 0.07 | 0.21 | 0.21 | 96 | 1011.3 |
| 20260509124437 | 44 | 151 | 0.0 | 0.0 | 0.07 | 0.21 | 0.21 | 96 | 1011.4 |
| 20260509123934 | 44 | 151 | 0.0 | 0.0 | 0.00 | 0.20 | 0.20 | 96 | 1011.3 |
| 20260509123432 | 44 | 151 | 1.0 | 2.0 | 0.00 | 0.20 | 0.20 | 96 | 1011.4 |
| 20260509122928 | 44 | 151 | 0.0 | 0.0 | 0.00 | 0.20 | 0.20 | 96 | 1011.4 |
| 20260509122425 | 44 | 151 | 0.0 | 0.0 | 0.00 | 0.20 | 0.20 | 96 | 1011.6 |
| 20260509121921 | 43 | 151 | 0.0 | 0.0 | 0.00 | 0.20 | 0.20 | 96 | 1011.5 |
| 20260509121418 | 43 | 151 | 0.0 | 0.0 | 0.00 | 0.20 | 0.20 | 96 | 1011.5 |
| 20260509120917 | 43 | 151 | 0.0 | 0.0 | 0.07 | 0.20 | 0.20 | 96 | 1011.7 |
| 20260509120414 | 42 | 151 | 0.0 | 0.0 | 0.07 | 0.20 | 0.20 | 96 | 1011.5 |
| 20260509115912 | 42 | 151 | 0.0 | 0.0 | 0.05 | 0.19 | 0.19 | 96 | 1011.7 |
| 20260509115409 | 42 | 151 | 0.0 | 0.0 | 0.12 | 0.19 | 0.19 | 97 | 1011.7 |
| 20260509114906 | 42 | 153 | 0.0 | 1.0 | 0.07 | 0.18 | 0.18 | 97 | 1011.8 |
| 20260509114405 | 42 | 153 | 0.0 | 0.0 | 0.00 | 0.17 | 0.17 | 97 | 1011.9 |
| 20260509113904 | 41 | 154 | 0.0 | 0.0 | 0.00 | 0.17 | 0.17 | 97 | 1011.9 |
| 20260509113401 | 41 | 154 | 0.0 | 0.0 | 0.00 | 0.17 | 0.17 | 97 | 1011.8 |
| 20260509112857 | 41 | 154 | 0.0 | 0.0 | 0.00 | 0.17 | 0.17 | 97 | 1011.8 |
| 20260509112354 | 41 | 154 | 0.0 | 1.0 | 0.05 | 0.17 | 0.17 | 97 | 1011.8 |
| 20260509111852 | 41 | 149 | 1.0 | 1.0 | 0.12 | 0.17 | 0.17 | 97 | 1011.7 |
| 20260509111348 | 41 | 158 | 0.0 | 0.0 | 0.07 | 0.16 | 0.16 | 97 | 1011.4 |
| 20260509110846 | 40 | 158 | 0.0 | 1.0 | 0.12 | 0.16 | 0.16 | 97 | 1011.7 |
| 20260509110342 | 40 | 158 | 0.0 | 0.0 | 0.12 | 0.15 | 0.15 | 97 | 1011.7 |
| 20260509105841 | 40 | 166 | 0.0 | 0.0 | 0.19 | 0.14 | 0.14 | 97 | 1012.0 |
| 20260509105338 | 39 | 165 | 0.0 | 0.0 | 0.12 | 0.13 | 0.13 | 97 | 1011.5 |
| 20260509104835 | 39 | 165 | 1.0 | 1.0 | 0.12 | 0.12 | 0.12 | 97 | 1011.7 |
| 20260509104331 | 39 | 165 | 0.0 | 0.0 | 0.12 | 0.11 | 0.11 | 96 | 1011.7 |
| 20260509103829 | 39 | 165 | 0.0 | 0.0 | 0.07 | 0.10 | 0.10 | 96 | 1011.8 |
| 20260509103326 | 39 | 165 | 0.0 | 0.0 | 0.05 | 0.09 | 0.09 | 96 | 1011.8 |
| 20260509102825 | 39 | 165 | 0.0 | 0.0 | 0.05 | 0.09 | 0.09 | 96 | 1011.7 |
| 20260509102322 | 39 | 165 | 0.0 | 0.0 | 0.00 | 0.08 | 0.08 | 96 | 1011.7 |
| 20260509101817 | 38 | 165 | 0.0 | 0.0 | 0.00 | 0.08 | 0.08 | 96 | 1011.8 |
| 20260509101314 | 38 | 165 | 0.0 | 0.0 | 0.00 | 0.08 | 0.08 | 96 | 1012.0 |
| 20260509100812 | 38 | 165 | 0.0 | 0.0 | 0.00 | 0.08 | 0.08 | 96 | 1011.6 |
| 20260509100309 | 38 | 165 | 0.0 | 0.0 | 0.07 | 0.08 | 0.08 | 96 | 1011.9 |
| 20260509095805 | 38 | 165 | 0.0 | 0.0 | 0.07 | 0.08 | 0.08 | 96 | 1011.7 |
| 20260509095305 | 38 | 165 | 0.0 | 1.0 | 0.00 | 0.07 | 0.07 | 96 | 1011.8 |
| 20260509094800 | 38 | 165 | 0.0 | 0.0 | 0.00 | 0.07 | 0.07 | 96 | 1011.7 |
| 20260509094256 | 38 | 165 | 0.0 | 0.0 | 0.00 | 0.07 | 0.07 | 96 | 1011.8 |
| 20260509093754 | 38 | 165 | 0.0 | 0.0 | 0.00 | 0.07 | 0.07 | 96 | 1011.9 |
| 20260509093251 | 38 | 165 | 0.0 | 0.0 | 0.00 | 0.07 | 0.07 | 96 | 1012.2 |
| 20260509092750 | 38 | 165 | 1.0 | 1.0 | 0.00 | 0.07 | 0.07 | 95 | 1012.0 |
| 20260509092247 | 38 | 165 | 0.0 | 0.0 | 0.07 | 0.07 | 0.07 | 95 | 1011.8 |
| 20260509091745 | 38 | 165 | 0.0 | 0.0 | 0.07 | 0.07 | 0.07 | 95 | 1012.3 |
| 20260509091241 | 38 | 165 | 0.0 | 0.0 | 0.07 | 0.07 | 0.07 | 95 | 1012.3 |
| 20260509090739 | 38 | 165 | 0.0 | 0.0 | 0.00 | 0.06 | 0.06 | 95 | 1011.9 |
| 20260509090236 | 38 | 165 | 0.0 | 0.0 | 0.00 | 0.06 | 0.06 | 95 | 1012.0 |
| 20260509085733 | 38 | 165 | 0.0 | 0.0 | 0.00 | 0.06 | 0.06 | 95 | 1012.3 |
| 20260509085231 | 38 | 165 | 0.0 | 0.0 | 0.00 | 0.06 | 0.06 | 95 | 1011.9 |
| 20260509084727 | 38 | 165 | 0.0 | 0.0 | 0.00 | 0.06 | 0.06 | 95 | 1011.9 |
| 20260509084224 | 38 | 165 | 0.0 | 0.0 | 0.00 | 0.06 | 0.06 | 94 | 1011.9 |
| 20260509083722 | 38 | 165 | 1.0 | 1.0 | 0.00 | 0.06 | 0.06 | 94 | 1012.0 |
| 20260509083218 | 37 | 160 | 0.0 | 0.0 | 0.05 | 0.06 | 0.06 | 94 | 1012.3 |
| 20260509082715 | 37 | 172 | 1.0 | 1.0 | 0.05 | 0.06 | 0.06 | 94 | 1012.5 |
| 20260509082212 | 37 | 178 | 0.0 | 0.0 | 0.07 | 0.05 | 0.05 | 93 | 1012.4 |
| 20260509081708 | 37 | 151 | 1.0 | 1.0 | 0.07 | 0.05 | 0.05 | 93 | 1012.6 |
| 20260509081206 | 37 | 150 | 0.0 | 0.0 | 0.00 | 0.04 | 0.04 | 92 | 1012.8 |
| 20260509080704 | 37 | 175 | 0.0 | 0.0 | 0.05 | 0.04 | 0.04 | 92 | 1012.7 |
| 20260509080201 | 37 | 175 | 0.0 | 0.0 | 0.12 | 0.04 | 0.04 | 92 | 1012.5 |
| 20260509075659 | 37 | 176 | 0.0 | 0.0 | 0.07 | 0.03 | 0.03 | 91 | 1012.6 |
| 20260509075157 | 37 | 187 | 0.0 | 0.0 | 0.12 | 0.03 | 0.03 | 91 | 1012.6 |
| 20260509074654 | 37 | 171 | 1.0 | 1.0 | 0.05 | 0.02 | 0.02 | 90 | 1012.6 |
| 20260509074150 | 37 | 136 | 2.0 | 3.0 | 0.00 | 0.01 | 0.01 | 88 | 1012.7 |
| 20260509073647 | 37 | 163 | 1.0 | 1.0 | 0.00 | 0.01 | 0.01 | 88 | 1012.6 |
| 20260509073143 | 37 | 167 | 1.0 | 1.0 | 0.07 | 0.01 | 0.01 | 87 | 1012.5 |
| 20260509072641 | 37 | 177 | 0.0 | 1.0 | 0.07 | 0.01 | 0.01 | 86 | 1012.3 |
| 20260509072137 | 37 | 174 | 1.0 | 1.0 | 0.00 | 0.00 | 0.00 | 85 | 1012.4 |
| 20260509071634 | 37 | 174 | 1.0 | 1.0 | 0.00 | 0.00 | 0.00 | 84 | 1012.3 |
| 20260509071131 | 37 | 180 | 0.0 | 0.0 | 0.00 | 0.00 | 0.00 | 84 | 1012.2 |
| 20260509070628 | 37 | 180 | 1.0 | 1.0 | 0.00 | 0.00 | 0.00 | 84 | 1012.4 |
| 20260509070124 | 37 | 167 | 0.0 | 0.0 | 0.00 | 0.00 | 0.00 | 84 | 1012.4 |